Regional Weather Roundup
Issued by NWS Sterling, VA

Home | Current Version | Previous Version | Graphics & Text | Print | Product List | Glossary On
Versions: 1 2 3 4 5 6 7 8 9 10 11 12 13 14 15 16 17 18 19 20 21 22 23 24 25 26 27 28 29 30 31 32 33 34 35 36 37 38 39 40 41 42 43 44 45 46 47 48 49 50
000
ASUS41 KLWX 241810
RWRLWX

REGIONAL WEATHER ROUNDUP
NATIONAL WEATHER SERVICE BALTIMORE MD/WASHINGTON DC
200 PM EDT SUN MAY 24 2015

Note: "FAIR" indicates few or no clouds below 12,000 feet
with no significant weather and/or obstructions to visibility.
 TC=TEMPERATURE CELSIUS

 * =Non NWS site. Station does not report precipitation (e.g. rain,
    snow, etc.), thunder, or fog.

DCZ001-MDZ009-015-VAZ040>042-051-053>054-241900-
WASHINGTON METRO

CITY           SKY/WX    TMP DP  RH WIND       PRES   REMARKS
WASHINGTON NAT PTSUNNY   79  59  50 S9        30.33F
DULLES         MOSUNNY   79  47  32 W8        30.32F
ANDREWS AFB    SUNNY     77  56  48 SW10      30.32F
FT BELVOIR     SUNNY     78  59  51 SE5       30.32F
QUANTICO       SUNNY     77  61  57 S9        30.33F
COLLEGE PARK*  SUNNY     79  52  38 CALM      30.33F
LEESBURG*      SUNNY     79  52  38 SW7       30.33F
MANASSAS*      SUNNY    N/A N/A N/A VRB5      30.32F
GAITHERSBURG*  SUNNY     79  52  38 NW7       30.36F

$$

MDZ006>007-011-014-241900-
BALTIMORE METRO

CITY           SKY/WX    TMP DP  RH WIND       PRES   REMARKS
BWI AIRPORT    MOSUNNY   78  53  41 VRB5      30.32F
MD SCIENCE CTR   N/A     75  56  51 MISG      30.33F
MARTIN STATE   MOSUNNY   73  59  60 SE9       30.35F
ANNAPOLIS      SUNNY     70  58  65 SE12      30.33F
FORT MEADE*    SUNNY     77  54  44 S3        30.35F

$$

MDZ012-015-019>023-241900-
MARYLAND EASTERN SHORE

CITY           SKY/WX    TMP DP  RH WIND       PRES   REMARKS
OCEAN CITY     SUNNY     69  47  45 S12G23    30.37F
SALISBURY      SUNNY     78  53  41 SW12      30.35F
BAY BRIDGE AP*   N/A    N/A N/A N/A SE5       30.35S
CAMBRIDGE*     SUNNY     77  55  47 S7        30.35S
EASTON*        MOSUNNY   77  57  50 SW12      30.38

$$

MDZ017>025-241900-
SOUTHERN MARYLAND

CITY           SKY/WX    TMP DP  RH WIND       PRES   REMARKS
PATUXENT RIVER MOSUNNY   76  59  55 VRB5      30.34F
ST INIGOES     SUNNY     78  58  49 VRB5      30.34F
LEONARDTOWN*   SUNNY     77  55  47 SW8       30.36F

$$

MDZ003>005-241900-
NORTH CENTRAL MARYLAND

CITY           SKY/WX    TMP DP  RH WIND       PRES   REMARKS
FREDERICK*     SUNNY     81  48  32 S6        30.35F
HAGERSTOWN APT MOSUNNY   79  38  22 SW5       30.32F
WESTMINSTER*   SUNNY     79  34  19 SW5       30.34F

$$

MDZ501>502-241900-
WESTERN MARYLAND

CITY           SKY/WX    TMP DP  RH WIND       PRES   REMARKS
OAKLAND*       SUNNY     72  41  33 SW7G17    30.38F
CUMBERLAND*    SUNNY     81  43  26 S5        30.35F

$$

VAZ025>031-241900-
SHENANDOAH VALLEY

CITY           SKY/WX    TMP DP  RH WIND       PRES   REMARKS
WINCHESTER*    SUNNY     81  27  13 SE7       30.33F
FRONT ROYAL*   FAIR      77  52  41 NE5       30.31F
LURAY*         FAIR      81  54  39 CALM      30.33F
NEW MARKET*    FAIR      79  50  35 SE3       30.31F
STAUNTON*      SUNNY     82  47  29 S12       30.35F
WAYNESBORO*    FAIR      77  48  36 SW7G16    30.35F

$$

WVZ021-048>050-054>055-241900-
EASTERN WEST VIRGINIA PANHANDLE

CITY           SKY/WX    TMP DP  RH WIND       PRES   REMARKS
MARTINSBURG    SUNNY     79  48  33 SE7       30.33F
PETERSBURG*    SUNNY     80  46  29 CALM      30.32F

$$

VAZ036>039-050-241900-
CENTRAL FOOTHILLS

CITY           SKY/WX    TMP DP  RH WIND       PRES   REMARKS
CHARLOTTESVILL SUNNY     80  55  42 SE10      30.32F
CULPEPER*      SUNNY     79  55  42 S6        30.32F
ORANGE*        SUNNY     81  55  41 CALM      30.34F
GORDONSVILLE*  FAIR      80  54  41 SW8       30.32F
WARRENTON*     FAIR      80  56  42 CALM      30.32F

$$

VAZ055>057-241900-
NORTH AND CENTRAL PIEDMONT

CITY           SKY/WX    TMP DP  RH WIND       PRES   REMARKS
FREDERICKSBRG* SUNNY     82  56  40 S9        30.32F
STAFFORD*      SUNNY     80  51  37 CALM      30.37F

$$

NCZ024-NYZ072-PAZ021-071-VAZ022-071-241900-
OTHER REGIONAL OBSERVATIONS

CITY           SKY/WX    TMP DP  RH WIND       PRES   REMARKS
NEW YORK CITY  PTSUNNY   80  38  22 VRB5      30.30F
PHILADELPHIA   PTSUNNY   77  51  40 SW13      30.32F
PITTSBURGH     MOSUNNY   78  41  26 S12       30.30F
ROANOKE        MOSUNNY   82  48  30 VRB5G16   30.36F
RICHMOND       MOSUNNY   81  56  42 S7        30.35F
RALEIGH        MOSUNNY   81  56  42 SW6       30.38F

$$

ANZ530>537-241900-
MARINE OBSERVATIONS

STATION/POSITION TIME  TEMP    WIND        PRES
                       AIR SEA DIR/SP/G
                 (UTC) (F)     (DEG/KT/KT) (MB)
THOMAS PT LIGHT  1800   68 66  170/  8/  8 1027.9F
BALT KEY BRIDGE  1700   67     110/ 12/ 13 1027.3F
LEWISETTA        1700   74 70              1027.5F
SOLOMONS ISLAND  1700      69                N/A
PINEY POINT      1700          100/  2/  3   N/A

$$




USA.gov is the U.S. government's official web portal to all federal, state and local government web resources and services.